Dewpoint
56 55 53 51 49 47 44 43 41 40 39 38 38 37 37 37 36 38 40 47 51 54 48 50 50 48 48 48 48 48 48 48 48 48 47 48 49 48 48 48 49 49 50
55 53 52 50 49 45 43 41 39 38 37 37 36 37 37 36 35 36 38 45 54 53 51 48 46 46 45 46 46 46 47 46 45 46 46 46 46 45 44 44 46 46 48
53 50 49 47 46 44 42 40 39 39 37 36 34 35 36 35 35 35 35 42 47 47 49 48 44 43 41 41 43 43 43 42 42 43 43 44 43 43 42 42 43 44 45
50 49 48 48 47 45 43 41 39 37 37 35 33 34 34 35 35 35 34 35 38 36 41 48 47 44 39 39 41 41 41 41 40 40 41 41 41 41 41 41 42 42 43
50 50 49 47 46 45 43 41 40 37 35 35 34 34 35 34 35 33 35 35 36 35 35 40 44 46 43 40 39 41 40 41 41 41 40 39 40 41 41 40 40 41 42
49 49 47 46 45 43 40 39 38 38 37 36 34 34 35 34 35 35 35 34 35 35 34 35 35 35 41 41 41 41 41 42 44 43 43 41 39 39 39 40 40 41 41
48 47 45 43 42 40 38 38 38 36 37 36 34 35 34 34 34 34 35 35 35 35 35 34 35 34 32 36 37 40 42 42 42 42 43 43 43 38 38 37 38 39 40
48 45 43 41 41 39 39 38 37 37 37 37 34 33 32 33 33 34 34 35 34 34 34 34 34 32 30 30 34 35 36 37 39 40 40 39 38 39 38 37 37 37 38
47 44 43 41 40 39 38 37 37 37 35 36 36 34 31 29 32 34 34 34 35 35 35 34 34 33 30 31 31 33 38 39 40 38 39 38 38 37 38 37 36 36 39
46 44 42 41 40 40 39 39 39 37 37 35 37 36 35 34 32 31 33 34 35 35 35 34 34 33 31 30 31 33 37 39 37 36 37 37 37 37 37 37 38 37 39
43 42 41 41 41 41 39 38 38 37 37 36 35 35 35 34 33 32 30 32 34 35 35 35 35 33 30 30 29 32 37 38 34 35 36 36 36 37 38 38 38 37 39
41 41 41 41 39 39 38 35 35 34 35 36 37 36 35 34 33 32 31 31 31 33 34 35 33 30 29 28 29 33 33 33 34 34 31 31 32 33 34 34 35 36 36
40 40 40 41 38 36 35 34 33 32 33 33 34 35 36 36 36 35 34 33 33 32 32 31 30 27 23 27 28 29 29 29 30 32 33 33 33 32 32 32 33 34 35
40 43 43 42 36 34 33 34 33 34 35 35 35 35 35 35 36 36 35 34 33 32 30 28 27 25 24 25 25 27 25 26 26 28 30 32 32 32 32 32 32 32 33
43 44 43 40 34 33 34 34 34 34 34 34 33 34 34 34 35 36 36 36 35 30 27 26 25 26 24 24 24 26 22 24 26 27 28 28 29 29 30 30 30 31 31
43 44 39 35 34 34 34 34 34 34 34 34 33 32 32 33 33 32 32 33 33 31 28 28 25 25 22 19 22 23 21 25 25 26 26 26 27 28 28 29 30 30 31
44 38 35 34 34 33 35 35 34 34 33 32 32 32 31 32 32 31 31 32 31 32 28 26 23 21 20 20 21 21 22 21 23 25 27 27 27 28 29 29 29 29 30
38 34 34 34 34 33 34 35 34 33 32 31 31 31 30 31 31 31 29 29 28 28 22 17 18 19 20 20 20 19 19 20 22 25 26 27 26 25 26 26 26 27 28
32 33 33 34 33 34 34 34 34 32 32 32 32 31 30 30 29 29 27 24 22 19 20 19 18 20 20 19 18 20 21 22 23 23 22 23 24 26 26 26 26 27 27
32 32 33 33 34 34 34 34 33 32 32 32 31 31 30 30 30 29 28 24 21 19 19 19 19 18 17 17 20 19 19 20 18 18 21 23 24 25 26 27 27 28 29
31 32 32 32 33 34 33 33 32 32 31 31 30 29 29 29 30 28 23 22 20 18 19 18 17 16 15 15 16 19 19 19 19 20 20 20 21 23 24 26 26 27 27
32 32 31 31 31 31 34 35 34 31 30 29 29 29 30 32 32 32 32 29 21 19 19 17 17 16 15 16 20 20 19 18 16 22 22 21 22 22 22 23 26 27 28
32 31 30 30 29 30 33 35 34 32 29 29 28 29 29 27 27 24 26 28 27 25 23 21 19 18 17 19 19 19 19 19 19 20 22 21 22 21 22 22 26 27 28
30 30 29 29 29 29 32 33 34 31 29 29 29 28 28 26 24 24 23 24 22 21 21 20 20 18 18 20 20 21 21 21 21 20 21 19 21 22 24 23 26 28 29
29 28 28 28 27 28 31 32 32 30 30 29 29 29 27 25 26 28 26 23 21 20 21 24 23 22 24 23 22 21 18 18 16 17 20 20 22 21 22 24 26 27 28
27 28 26 27 29 29 30 32 32 28 30 30 30 28 29 27 28 29 26 23 20 20 20 17 16 19 22 21 22 22 20 17 16 15 21 19 17 21 20 25 25 28 29
Lifted_Index
-1 -0 0 1 1 2 2 2 3 4 6 8 10 12 13 13 14 13 13 11 9 7 6 7 7 7 8 8 7 7 7 7 7 7 8 8 8 8 9 9 8 8 8
-0 0 1 1 1 2 3 4 5 7 8 10 12 13 14 14 14 14 12 10 8 7 7 7 8 8 8 8 8 8 7 7 8 8 8 8 8 9 10 10 9 9 9
0 1 1 2 2 3 5 6 8 9 11 12 13 14 15 15 15 14 13 10 9 8 8 8 8 9 9 9 9 8 8 8 9 9 8 9 9 10 10 11 10 10 10
1 1 2 3 4 6 7 8 9 10 11 13 13 14 15 15 15 14 14 12 11 10 10 9 9 9 10 10 10 9 9 9 9 9 9 10 10 10 11 11 11 11 11
2 2 3 5 7 8 8 8 9 10 11 12 13 13 14 14 14 14 14 13 13 12 12 11 11 10 10 10 10 10 10 10 10 10 10 11 11 11 11 11 11 11 11
4 5 6 7 7 7 8 8 9 10 11 12 12 13 13 13 13 13 13 13 13 13 13 13 12 12 12 11 11 10 10 10 10 10 11 11 12 12 12 13 12 12 12
6 7 7 7 7 7 8 8 9 9 10 11 12 12 12 12 13 12 12 13 13 13 13 13 13 13 13 13 12 12 11 11 11 11 11 11 12 13 13 14 14 13 13
7 7 7 7 7 8 8 8 8 9 10 11 11 11 11 11 12 12 12 12 12 12 12 12 12 12 13 13 14 13 13 12 12 11 11 12 12 13 13 14 14 14 14
7 7 7 7 8 8 8 8 8 8 9 10 11 11 10 10 11 12 12 12 12 12 12 12 12 12 13 13 14 14 13 13 12 12 11 11 11 12 12 13 14 14 14
7 7 7 8 8 8 7 7 7 8 9 10 11 11 11 10 11 11 11 11 11 11 12 12 12 12 12 13 13 13 13 12 12 11 11 10 10 11 11 12 12 12 12
6 6 7 7 8 7 7 7 8 10 11 12 12 12 12 11 11 11 11 11 11 11 11 12 11 11 11 12 12 13 12 12 12 11 10 10 10 9 10 10 10 10 10
5 6 6 7 7 7 7 8 10 11 13 13 13 13 12 12 11 11 11 11 11 11 11 11 11 11 11 11 12 12 12 12 11 11 10 9 9 9 9 9 9 9 9
5 5 6 7 7 7 8 10 11 13 14 14 13 13 12 12 12 11 11 11 11 11 11 11 11 11 11 11 11 11 11 10 10 9 9 8 8 8 8 8 8 8 8
4 5 5 6 7 9 10 12 13 14 14 14 13 13 13 12 12 12 11 10 10 11 11 11 11 11 10 10 9 9 9 9 9 9 8 8 8 7 8 8 8 8 8
5 5 5 6 8 10 12 12 13 14 14 13 13 13 12 12 12 12 11 10 10 10 11 11 10 10 9 9 9 9 10 10 9 9 8 8 8 7 8 8 8 8 8
5 5 6 8 10 11 12 13 13 13 13 13 12 12 11 12 12 12 11 10 10 10 10 10 9 9 9 9 10 10 10 10 9 9 9 8 8 8 8 9 9 9 9
5 6 8 10 12 12 12 13 13 12 12 12 11 11 11 11 11 11 10 10 9 9 9 9 8 8 9 9 10 10 10 9 9 9 9 9 9 9 9 10 10 10 10
7 8 10 12 12 12 12 12 12 12 11 11 10 10 10 10 10 10 9 8 8 8 8 8 8 8 8 9 9 9 9 9 9 9 10 10 10 11 11 11 11 11 11
10 11 12 12 12 12 12 12 12 11 11 10 9 9 9 9 9 8 8 7 7 8 8 8 8 8 8 9 9 8 8 8 9 10 10 11 11 12 12 12 12 11 11
12 12 12 12 12 12 12 12 11 11 10 10 9 9 9 8 8 7 7 7 7 7 8 8 8 8 8 8 8 8 8 8 8 10 10 11 12 12 12 11 11 11 10
11 11 11 12 12 13 13 12 11 11 10 9 9 8 8 8 7 7 7 7 7 8 8 8 8 8 8 8 8 7 7 7 8 9 10 11 11 12 11 11 10 10 10
10 11 12 13 13 13 13 12 12 11 10 9 8 8 8 7 7 7 7 8 8 8 7 8 8 7 7 8 8 7 7 7 8 9 10 10 11 11 10 10 10 9 9
11 12 13 13 13 13 13 12 12 11 9 8 8 7 7 7 7 7 8 8 8 8 8 8 8 8 8 8 8 8 8 8 8 10 10 10 10 10 9 9 9 9 9
12 13 13 13 13 13 13 12 11 10 9 7 7 7 7 8 8 8 8 8 8 8 8 8 8 8 8 8 8 8 8 8 8 9 10 10 9 9 8 8 8 8 8
13 13 13 13 13 13 12 12 11 9 8 7 7 7 7 8 8 8 8 8 8 8 8 8 8 9 9 9 9 9 8 7 7 8 9 10 9 8 7 7 8 8 7
14 13 13 13 13 13 12 11 10 9 7 7 7 7 7 8 8 8 8 8 8 8 8 8 8 9 9 9 9 9 8 7 7 7 9 9 9 8 7 7 7 7 7